Date String (YYYY-MM-DD hh:mm:ss) UTC,Instrument flags,Ambient pressure (hPa),Sample flow (lpm),Bypass flow (lpm),Sample temperature (°C),Ambient temperature (°C),ASC tube jacket temperature (°C),LED temperature (°C),Box temperature (°C),Sample RH (%),Span deviation,Mass concentration (μg/m³),Mass concentration (μg/m³),Mass concentration (μg/m³)
DateTimeUTC,F1_M11,P_M11,Q1_M11,Q2_M11,T1_M11,T2_M11,T3_M11,T4_M11,T5_M11,U1_M11,ZSPAN_M11,X2_M11,X0_M11,X1_M11
2022-03-29 22:00:00,,0810.7,4.99,0.00,27.3,26.4,00.0,36.2,29.1,21.2,0000.0,0004.58,0009.03,0003.61
2022-03-29 22:01:00,,0810.7,5.02,0.00,27.3,26.4,00.0,36.3,29.1,21.4,0000.0,0004.57,0009.53,0003.62
2022-03-29 22:02:00,,0810.8,5.00,0.00,27.3,26.4,00.0,36.3,29.1,21.3,0000.0,0004.57,0010.00,0003.62
2022-03-29 22:03:00,,0810.9,5.00,0.00,27.3,26.4,00.0,36.2,29.1,21.1,0000.0,0004.60,0010.13,0003.63
2022-03-29 22:04:00,,0810.9,4.99,0.00,27.3,26.4,00.0,36.2,29.1,21.1,0000.0,0004.62,0010.54,0003.63
2022-03-29 22:05:00,,0810.9,5.01,0.00,27.3,26.4,00.0,36.2,29.1,21.4,0000.0,0004.64,0010.69,0003.63
2022-03-29 22:06:00,,0810.9,4.98,0.00,27.3,26.4,00.0,36.3,29.1,21.4,0000.0,0004.67,0010.79,0003.64
2022-03-29 22:07:00,,0810.9,5.02,0.00,27.3,26.4,00.0,36.3,29.1,21.3,0000.0,0004.69,0010.89,0003.63
2022-03-29 22:08:00,,0810.9,5.00,0.00,27.3,26.4,00.0,36.3,29.1,21.3,0000.0,0004.70,0011.16,0003.63
2022-03-29 22:09:00,,0810.8,5.02,0.00,27.3,26.4,00.0,36.3,29.1,21.3,0000.0,0004.68,0011.48,0003.64
2022-03-29 22:10:00,,0810.9,4.99,0.00,27.3,26.4,00.0,36.3,29.1,21.3,0000.0,0004.65,0011.94,0003.64
2022-03-29 22:11:00,,0810.9,4.99,0.00,27.3,26.4,00.0,36.3,29.1,21.4,0000.0,0004.63,0011.95,0003.64
2022-03-29 22:12:00,,0810.9,5.01,0.00,27.3,26.4,00.0,36.3,29.1,21.2,0000.0,0004.64,0011.53,0003.65
2022-03-29 22:13:00,,0810.9,5.00,0.00,27.3,26.4,00.0,36.3,29.1,21.2,0000.0,0004.66,0011.05,0003.66
2022-03-29 22:14:00,,0810.9,4.99,0.00,27.3,26.4,00.0,36.3,29.1,21.2,0000.0,0004.64,0010.98,0003.65
2022-03-29 22:15:00,,0810.9,4.98,0.00,27.3,26.4,00.0,36.3,29.2,20.7,0000.0,0004.64,0010.59,0003.64
2022-03-29 22:16:00,,0810.9,5.01,0.00,27.3,26.4,00.0,36.3,29.2,20.3,0000.0,0004.63,0010.41,0003.61
2022-03-29 22:17:00,,0810.9,5.00,0.00,27.3,26.4,00.0,36.3,29.2,20.0,0000.0,0004.54,0010.15,0003.57
2022-03-29 22:18:00,,0811.0,5.01,0.00,27.3,26.4,00.0,36.3,29.1,19.9,0000.0,0004.49,0010.13,0003.52
2022-03-29 22:19:00,,0811.0,4.99,0.00,27.3,26.4,00.0,36.3,29.1,20.0,0000.0,0004.47,0009.96,0003.48
2022-03-29 22:20:00,,0811.0,5.00,0.00,27.3,26.4,00.0,36.3,29.2,20.1,0000.0,0004.41,0009.47,0003.44
2022-03-29 22:21:00,,0811.0,5.00,0.00,27.3,26.4,00.0,36.3,29.2,20.1,0000.0,0004.33,0008.77,0003.39
2022-03-29 22:22:00,,0811.0,5.00,0.00,27.3,26.4,00.0,36.3,29.2,20.0,0000.0,0004.21,0008.95,0003.33
2022-03-29 22:23:00,,0811.0,4.99,0.00,27.3,26.4,00.0,36.3,29.2,19.9,0000.0,0004.18,0009.04,0003.28
2022-03-29 22:24:00,,0811.0,5.02,0.00,27.3,26.5,00.0,36.3,29.2,20.0,0000.0,0004.10,0008.91,0003.23
2022-03-29 22:25:00,,0811.0,4.99,0.00,27.3,26.4,00.0,36.3,29.2,19.4,0000.0,0004.00,0008.82,0003.18
2022-03-29 22:26:00,,0811.0,5.00,0.00,27.3,26.4,00.0,36.3,29.2,19.5,0000.0,0003.88,0008.56,0003.12
2022-03-29 22:27:00,,0811.0,5.02,0.00,27.3,26.4,00.0,36.3,29.2,19.3,0000.0,0003.78,0008.35,0003.05
2022-03-29 22:28:00,,0811.0,4.98,0.00,27.3,26.4,00.0,36.3,29.2,18.9,0000.0,0003.69,0008.16,0002.98
2022-03-29 22:29:00,,0811.0,5.01,0.00,27.3,26.4,00.0,36.3,29.1,18.7,0000.0,0003.62,0007.95,0002.91
2022-03-29 22:30:00,,0811.0,4.99,0.00,27.3,26.3,00.0,36.3,29.1,18.7,0000.0,0003.53,0007.85,0002.83
2022-03-29 22:31:00,,0811.0,4.99,0.00,27.3,26.3,00.0,36.3,29.1,18.9,0000.0,0003.45,0007.70,0002.76
2022-03-29 22:32:00,,0811.0,5.01,0.00,27.3,26.3,00.0,36.3,29.1,18.9,0000.0,0003.41,0007.66,0002.69
2022-03-29 22:33:00,,0811.0,4.99,0.00,27.3,26.3,00.0,36.3,29.1,18.9,0000.0,0003.36,0007.68,0002.64
2022-03-29 22:34:00,,0811.0,5.02,0.00,27.3,26.3,00.0,36.3,29.1,18.6,0000.0,0003.29,0007.30,0002.59
2022-03-29 22:35:00,,0811.0,4.98,0.00,27.3,26.3,00.0,36.3,29.1,18.6,0000.0,0003.18,0007.07,0002.49
2022-03-29 22:36:00,,0811.0,5.02,0.00,27.3,26.3,00.0,36.3,29.1,18.6,0000.0,0003.07,0007.61,0002.42
2022-03-29 22:37:00,,0811.1,4.99,0.00,27.3,26.3,00.0,36.3,29.1,18.3,0000.0,0002.95,0007.47,0002.34
2022-03-29 22:38:00,,0811.1,5.00,0.00,27.3,26.3,00.0,36.3,29.1,18.2,0000.0,0002.82,0007.29,0002.25
2022-03-29 22:39:00,,0811.1,4.98,0.00,27.3,26.2,00.0,36.3,29.1,18.4,0000.0,0002.75,0007.93,0002.18
2022-03-29 22:40:00,,0811.1,5.01,0.00,27.3,26.2,00.0,36.3,29.0,18.5,0000.0,0002.65,0007.77,0002.13
2022-03-29 22:41:00,,0811.1,5.01,0.00,27.3,26.3,00.0,36.3,29.1,18.5,0000.0,0002.58,0007.57,0002.08
2022-03-29 22:42:00,,0811.1,4.98,0.00,27.3,26.3,00.0,36.3,29.1,18.7,0000.0,0002.50,0007.47,0002.01
2022-03-29 22:43:00,,0811.1,5.01,0.00,27.3,26.3,00.0,36.3,29.1,18.3,0000.0,0002.39,0007.34,0001.94
2022-03-29 22:44:00,,0811.2,4.99,0.00,27.3,26.2,00.0,36.3,29.1,18.3,0000.0,0002.29,0006.61,0001.86
2022-03-29 22:45:00,,0811.2,5.02,0.00,27.3,26.3,00.0,36.3,29.1,18.7,0000.0,0002.20,0006.24,0001.79
2022-03-29 22:46:00,,0811.2,4.99,0.00,27.3,26.3,00.0,36.3,29.1,18.4,0000.0,0002.17,0006.41,0001.74
2022-03-29 22:47:00,,0811.3,5.00,0.00,27.3,26.3,00.0,36.3,29.1,18.2,0000.0,0002.13,0005.08,0001.70
2022-03-29 22:48:00,,0811.3,4.99,0.00,27.3,26.3,00.0,36.3,29.0,18.4,0000.0,0002.13,0005.03,0001.67
2022-03-29 22:49:00,,0811.3,4.99,0.00,27.3,26.3,00.0,36.3,29.1,18.2,0000.0,0002.10,0004.98,0001.64
2022-03-29 22:50:00,,0811.3,5.02,0.00,27.3,26.3,00.0,36.2,29.1,18.4,0000.0,0002.07,0003.80,0001.62
2022-03-29 22:51:00,,0811.3,4.98,0.00,27.3,26.2,00.0,36.2,29.1,18.5,0000.0,0002.05,0003.59,0001.59
2022-03-29 22:52:00,,0811.3,4.99,0.00,27.3,26.2,00.0,36.2,29.0,18.0,0000.0,0002.02,0003.54,0001.57
2022-03-29 22:53:00,,0811.4,5.01,0.00,27.2,26.2,00.0,36.2,29.0,17.8,0000.0,0002.00,0003.50,0001.54
2022-03-29 22:54:00,,0811.4,4.99,0.00,27.2,26.2,00.0,36.2,29.0,18.2,0000.0,0001.98,0003.44,0001.53
2022-03-29 22:55:00,,0811.4,5.00,0.00,27.2,26.2,00.0,36.2,29.0,18.2,0000.0,0001.97,0003.40,0001.51
2022-03-29 22:56:00,,0811.4,5.01,0.00,27.2,26.2,00.0,36.2,29.0,17.7,0000.0,0001.96,0003.08,0001.50
2022-03-29 22:57:00,,0811.4,4.99,0.00,27.2,26.2,00.0,36.2,29.0,17.9,0000.0,0001.96,0003.31,0001.48
2022-03-29 22:58:00,,0811.4,5.00,0.00,27.2,26.1,00.0,36.2,29.0,17.9,0000.0,0001.98,0004.77,0001.48
2022-03-29 22:59:00,,0811.4,4.99,0.00,27.2,26.2,00.0,36.2,29.0,18.1,0000.0,0001.96,0005.05,0001.48
